Location: Unspecified
(0.0000°N, 0.0000°E)
Time: 07:45:37
(UTC+00:00)

SR - All Passes

Search period start: 20 October 2021 00:00
Search period end: 30 October 2021 00:00
Orbit: 582 x 872 km, 66.7° (Epoch: 19 October)

Date Brightness Start Highest point End Pass type
(mag) Time Alt. Az. Time Alt. Az. Time Alt. Az.
20 Oct - 07:55:35 10° SSE 07:59:58 23° ESE 08:04:10 10° ENE daylight
20 Oct - 09:37:11 10° SW 09:41:49 26° WNW 09:46:11 10° NNW daylight
20 Oct - 20:20:50 10° N 20:25:01 44° ENE 20:29:31 10° SE night (unlit)
21 Oct - 08:46:26 10° SSW 08:52:06 66° WNW 08:57:22 10° N daylight
21 Oct - 19:32:42 10° NE 19:35:20 16° ENE 19:38:05 10° ESE night (unlit)
21 Oct - 21:13:30 10° WNW 21:17:03 23° WSW 21:20:48 10° SSW night (unlit)
22 Oct - 07:56:47 10° S 08:02:20 50° ESE 08:07:29 10° NE daylight
22 Oct - 09:42:40 10° W 09:44:01 11° WNW 09:45:20 10° WNW daylight
22 Oct - 20:22:50 10° NNW 20:27:13 67° WSW 20:31:58 10° SSE night (unlit)
23 Oct - 07:08:19 10° SSE 07:12:27 21° ESE 07:16:24 10° ENE daylight
23 Oct - 08:49:32 10° SW 08:54:19 28° WNW 08:58:49 10° NNW daylight
23 Oct - 19:33:22 10° N 19:37:29 40° ENE 19:41:55 10° SE night (unlit)
24 Oct - 07:58:55 10° SSW 08:04:36 72° WNW 08:09:52 10° NNE daylight
24 Oct - 18:45:30 10° NE 18:47:50 14° ENE 18:50:13 10° ESE visible
24 Oct - 20:25:47 10° NW 20:29:30 26° WSW 20:33:29 10° SSW night (unlit)
25 Oct - 07:09:22 10° S 07:14:49 45° ESE 07:19:53 10° NE daylight
25 Oct - 08:54:26 10° W 08:56:30 12° WNW 08:58:32 10° NW daylight
25 Oct - 19:35:16 10° NNW 19:39:41 76° WSW 19:44:29 10° SSE visible
26 Oct - 06:21:05 10° SSE 06:24:56 19° ESE 06:28:36 10° ENE daylight
26 Oct - 08:01:53 10° SW 08:06:49 31° WNW 08:11:25 10° N daylight
26 Oct - 18:45:55 10° N 18:49:58 35° ENE 18:54:19 10° SE visible
26 Oct - 20:31:20 10° WSW 20:31:52 10° WSW 20:32:25 10° WSW visible
27 Oct - 07:11:24 10° SSW 07:17:06 79° WNW 07:22:21 10° NNE daylight
27 Oct - 17:58:23 10° NE 18:00:18 12° ENE 18:02:15 10° E daylight
27 Oct - 19:38:04 10° NW 19:41:57 29° WSW 19:46:07 10° S visible
28 Oct - 06:21:58 10° S 06:27:17 41° ESE 06:32:15 10° NE daylight
28 Oct - 08:06:25 10° W 08:08:59 13° WNW 08:11:30 10° NW daylight
28 Oct - 18:47:41 10° NNW 18:52:09 85° WSW 18:56:59 10° SSE visible
29 Oct - 05:33:53 10° SSE 05:37:24 17° ESE 05:40:46 10° ENE daylight
29 Oct - 07:14:16 10° SW 07:19:18 34° WNW 07:24:01 10° N daylight
29 Oct - 17:58:28 10° N 18:02:26 32° ENE 18:06:41 10° SE visible
29 Oct - 19:42:41 10° W 19:44:19 12° WSW 19:45:59 10° SW visible
